�������l�o���
Date,Time,MP-1(��Sv/h),MP-2(��Sv/h),MP-3(��Sv/h),MP-4(��Sv/h),MP-5(��Sv/h),MP-6(��Sv/h),MP-7(��Sv/h),MP-8(��Sv/h),����,����(m/s),���J
2023/02/20,00:00,0.562,0.809,0.510,1.032,0.719,0.323,0.580,0.553,�k��,3.8,��
2023/02/20,00:10,0.562,0.810,0.511,1.033,0.719,0.324,0.581,0.553,�k��,3.7,��
2023/02/20,00:20,0.564,0.811,0.510,1.032,0.720,0.323,0.582,0.552,�k�k��,3.9,��
2023/02/20,00:30,0.562,0.811,0.509,1.033,0.718,0.323,0.582,0.553,�k�k��,3.1,��
2023/02/20,00:40,0.562,0.810,0.511,1.031,0.719,0.321,0.581,0.551,��,3.2,��
2023/02/20,00:50,0.562,0.810,0.508,1.034,0.720,0.322,0.582,0.554,�k��,3.7,��
2023/02/20,01:00,0.562,0.812,0.511,1.034,0.719,0.324,0.581,0.552,���k��,5.6,��
2023/02/20,01:10,0.562,0.811,0.510,1.032,0.720,0.323,0.582,0.552,���k��,8.0,��
2023/02/20,01:20,0.562,0.809,0.510,1.033,0.718,0.323,0.582,0.552,���k��,7.7,��
2023/02/20,01:30,0.561,0.810,0.510,1.032,0.719,0.322,0.582,0.553,���k��,6.3,��
2023/02/20,01:40,0.562,0.811,0.511,1.031,0.718,0.322,0.582,0.553,�k��,4.1,��
2023/02/20,01:50,0.562,0.810,0.511,1.033,0.719,0.322,0.582,0.553,���k��,3.4,��
2023/02/20,02:00,0.562,0.811,0.512,1.032,0.719,0.322,0.582,0.553,���k��,2.3,��
2023/02/20,02:10,0.563,0.809,0.509,1.033,0.718,0.323,0.582,0.553,�k��,1.8,��
2023/02/20,02:20,0.563,0.809,0.511,1.030,0.717,0.324,0.583,0.553,�k�k��,2.3,��
2023/02/20,02:30,0.562,0.812,0.509,1.032,0.720,0.322,0.581,0.552,�k��,3.5,��
2023/02/20,02:40,0.562,0.809,0.510,1.031,0.716,0.322,0.580,0.554,�k��,1.5,��
2023/02/20,02:50,0.560,0.810,0.511,1.032,0.720,0.324,0.582,0.552,�k��,1.5,��
2023/02/20,03:00,0.562,0.811,0.510,1.033,0.718,0.323,0.581,0.553,�k��,3.0,��
2023/02/20,03:10,0.562,0.810,0.509,1.032,0.720,0.322,0.581,0.553,�k��,3.4,��
2023/02/20,03:20,0.560,0.811,0.509,1.034,0.720,0.323,0.581,0.551,�k��,6.1,��
2023/02/20,03:30,0.559,0.811,0.510,1.032,0.719,0.321,0.582,0.552,�k��,5.1,��
2023/02/20,03:40,0.563,0.809,0.510,1.033,0.718,0.322,0.581,0.554,�k��,10.2,��
2023/02/20,03:50,0.560,0.811,0.511,1.034,0.720,0.323,0.580,0.553,�k��,9.0,�L
2023/02/20,04:00,0.560,0.810,0.509,1.032,0.719,0.324,0.580,0.552,�k��,9.6,��
2023/02/20,04:10,0.561,0.809,0.510,1.033,0.719,0.323,0.582,0.552,�k��,8.0,�L
2023/02/20,04:20,0.562,0.810,0.510,1.033,0.719,0.322,0.580,0.552,�k��,9.7,��
2023/02/20,04:30,0.560,0.810,0.510,1.031,0.719,0.321,0.582,0.552,�k��,9.5,��
2023/02/20,04:40,0.559,0.811,0.509,1.034,0.721,0.322,0.582,0.550,�k��,9.4,��
2023/02/20,04:50,0.560,0.809,0.509,1.033,0.718,0.321,0.582,0.552,�k��,8.8,��
2023/02/20,05:00,0.562,0.811,0.510,1.031,0.720,0.322,0.582,0.552,�k��,6.3,��
2023/02/20,05:10,0.558,0.810,0.508,1.032,0.719,0.322,0.581,0.551,�k��,5.4,��
2023/02/20,05:20,0.560,0.811,0.508,1.030,0.719,0.322,0.580,0.551,�k��,7.9,��
2023/02/20,05:30,0.560,0.809,0.508,1.034,0.719,0.320,0.580,0.552,�k��,7.4,��
2023/02/20,05:40,0.559,0.810,0.507,1.034,0.719,0.322,0.581,0.551,�k��,6.4,��
2023/02/20,05:50,0.558,0.811,0.507,1.030,0.719,0.321,0.580,0.551,�k��,5.3,��
2023/02/20,06:00,0.560,0.808,0.508,1.033,0.719,0.320,0.580,0.551,�k��,8.5,��
2023/02/20,06:10,0.560,0.811,0.508,1.032,0.719,0.321,0.580,0.552,�k��,7.4,��
2023/02/20,06:20,0.559,0.809,0.507,1.031,0.718,0.322,0.580,0.552,�k��,6.7,��
2023/02/20,06:30,0.562,0.808,0.507,1.032,0.717,0.321,0.582,0.551,�k��,4.4,��
2023/02/20,06:40,0.557,0.809,0.508,1.031,0.719,0.322,0.581,0.553,�k�k��,6.4,��
2023/02/20,06:50,0.559,0.810,0.510,1.032,0.717,0.321,0.581,0.551,�k��,5.9,��
2023/02/20,07:00,0.559,0.809,0.509,1.029,0.719,0.322,0.581,0.552,�k��,4.2,��
2023/02/20,07:10,0.559,0.807,0.508,1.031,0.717,0.320,0.580,0.551,�k��,3.2,��
2023/02/20,07:20,0.559,0.809,0.508,1.032,0.718,0.320,0.579,0.551,�k��,2.2,��
2023/02/20,07:30,0.559,0.811,0.507,1.030,0.719,0.321,0.579,0.552,�k��,2.9,��
2023/02/20,07:40,0.560,0.809,0.507,1.032,0.719,0.321,0.581,0.550,�k��,5.9,��
2023/02/20,07:50,0.560,0.809,0.507,1.033,0.719,0.321,0.581,0.550,�k��,5.7,��
2023/02/20,08:00,0.557,0.809,0.508,1.032,0.718,0.321,0.580,0.549,�k��,5.6,��
2023/02/20,08:10,0.558,0.808,0.509,1.034,0.720,0.321,0.580,0.549,�k��,6.5,��
2023/02/20,08:20,0.558,0.807,0.508,1.034,0.719,0.319,0.581,0.548,�k��,6.0,��
2023/02/20,08:30,0.559,0.808,0.508,1.031,0.719,0.320,0.581,0.550,�k��,6.7,��
2023/02/20,08:40,0.561,0.808,0.509,1.034,0.719,0.319,0.580,0.549,�k��,5.2,��
2023/02/20,08:50,0.560,0.808,0.507,1.033,0.718,0.320,0.581,0.550,���k��,3.9,��
2023/02/20,09:00,0.561,0.809,0.507,1.033,0.719,0.320,0.580,0.550,���k��,2.8,��
2023/02/20,09:10,0.560,0.807,0.504,1.035,0.721,0.320,0.580,0.550,��,1.4,��
2023/02/20,09:20,0.560,0.808,0.503,1.034,0.718,0.321,0.581,0.548,�쐼,2.2,��
2023/02/20,09:30,0.560,0.807,0.501,1.033,0.718,0.322,0.581,0.550,��,0.9,��
2023/02/20,09:40,0.558,0.810,0.499,1.036,0.718,0.320,0.579,0.550,�k��,4.6,��
2023/02/20,09:50,0.559,0.810,0.496,1.033,0.719,0.320,0.580,0.551,�k�k��,8.2,��
2023/02/20,10:00,0.558,0.808,0.498,1.032,0.718,0.321,0.581,0.551,�k��,7.6,��
2023/02/20,10:10,0.561,0.809,0.490,1.033,0.720,0.321,0.582,0.552,�k��,7.8,��
2023/02/20,10:20,0.561,0.811,0.484,1.033,0.720,0.320,0.580,0.552,�k�k��,9.4,��
2023/02/20,10:30,0.560,0.808,0.506,1.034,0.721,0.321,0.582,0.552,�k��,8.6,��
2023/02/20,10:40,0.559,0.807,0.506,1.031,0.718,0.320,0.581,0.552,�k�k��,9.9,��
2023/02/20,10:50,0.560,0.809,0.508,1.033,0.720,0.320,0.581,0.554,�k�k��,7.7,��
2023/02/20,11:00,0.559,0.810,0.493,1.034,0.720,0.322,0.582,0.550,�k�k��,8.6,��
2023/02/20,11:10,0.560,0.811,0.497,1.034,0.719,0.320,0.580,0.551,�k��,6.6,��
2023/02/20,11:20,0.561,0.811,0.502,1.032,0.719,0.323,0.581,0.552,�k�k��,6.6,��
2023/02/20,11:30,0.559,0.809,0.499,1.032,0.721,0.321,0.581,0.551,�k�k��,5.3,��
2023/02/20,11:40,0.560,0.811,0.502,1.035,0.718,0.321,0.582,0.552,�k�k��,4.9,��
2023/02/20,11:50,0.560,0.811,0.508,1.034,0.719,0.322,0.582,0.551,�k�k��,4.0,��
2023/02/20,12:00,0.561,0.812,0.508,1.034,0.719,0.321,0.582,0.550,�k�k��,2.6,��
2023/02/20,12:10,0.562,0.810,0.510,1.036,0.719,0.322,0.582,0.551,�k�k��,3.8,��
2023/02/20,12:20,0.561,0.812,0.509,1.036,0.720,0.322,0.582,0.552,�k�k��,4.5,��
2023/02/20,12:30,0.561,0.810,0.511,1.034,0.720,0.322,0.581,0.551,�k��,4.7,��
2023/02/20,12:40,0.561,0.813,0.509,1.034,0.719,0.321,0.581,0.551,�k�k��,6.5,��
2023/02/20,12:50,0.562,0.811,0.511,1.035,0.721,0.323,0.579,0.553,�k�k��,6.9,��
2023/02/20,13:00,0.562,0.813,0.511,1.037,0.720,0.322,0.580,0.552,�k�k��,5.4,��
2023/02/20,13:10,0.561,0.812,0.510,1.035,0.721,0.322,0.580,0.551,�k�k��,7.2,��
2023/02/20,13:20,0.563,0.809,0.511,1.034,0.720,0.323,0.581,0.553,�k�k��,9.4,��
2023/02/20,13:30,0.561,0.810,0.511,1.035,0.723,0.321,0.580,0.553,�k�k��,7.6,��
2023/02/20,13:40,0.561,0.811,0.511,1.036,0.722,0.322,0.580,0.552,�k�k��,7.5,��
2023/02/20,13:50,0.564,0.812,0.511,1.034,0.723,0.322,0.579,0.552,�k�k��,9.1,��
2023/02/20,14:00,0.562,0.811,0.512,1.037,0.722,0.321,0.579,0.553,�k�k��,9.0,��
2023/02/20,14:10,0.562,0.812,0.513,1.036,0.720,0.323,0.579,0.553,�k�k��,10.6,��
2023/02/20,14:20,0.562,0.813,0.512,1.035,0.720,0.321,0.578,0.555,�k�k��,10.0,��
2023/02/20,14:30,0.566,0.814,0.512,1.034,0.722,0.321,0.579,0.552,�k��,10.9,��
2023/02/20,14:40,0.563,0.815,0.511,1.036,0.722,0.322,0.579,0.552,�k��,8.0,��
2023/02/20,14:50,0.562,0.812,0.512,1.035,0.722,0.321,0.580,0.553,�k��,13.3,��
2023/02/20,15:00,0.563,0.813,0.511,1.036,0.722,0.322,0.579,0.551,�k��,8.5,��
2023/02/20,15:10,0.562,0.811,0.512,1.036,0.719,0.322,0.581,0.552,�k��,7.4,��
2023/02/20,15:20,0.562,0.813,0.512,1.035,0.722,0.322,0.581,0.552,�k��,12.0,��
2023/02/20,15:30,0.563,0.813,0.511,1.037,0.721,0.321,0.581,0.553,�k�k��,12.0,��
2023/02/20,15:40,0.562,0.814,0.512,1.036,0.719,0.323,0.581,0.552,�k�k��,11.7,��
2023/02/20,15:50,0.561,0.815,0.510,1.035,0.719,0.321,0.582,0.554,�k��,13.3,��
2023/02/20,16:00,0.563,0.815,0.511,1.036,0.719,0.321,0.581,0.553,�k��,11.8,��
2023/02/20,16:10,0.562,0.812,0.512,1.036,0.721,0.321,0.582,0.553,�k��,8.6,��
2023/02/20,16:20,0.560,0.813,0.512,1.036,0.719,0.321,0.582,0.555,�k��,10.5,��
2023/02/20,16:30,0.561,0.814,0.510,1.037,0.720,0.323,0.582,0.553,�k��,10.5,��
2023/02/20,16:40,0.562,0.813,0.511,1.035,0.719,0.322,0.582,0.554,�k��,10.0,��
2023/02/20,16:50,0.561,0.811,0.511,1.036,0.722,0.323,0.581,0.552,�k��,10.6,��
2023/02/20,17:00,0.562,0.812,0.511,1.035,0.722,0.320,0.582,0.553,�k��,12.4,��
2023/02/20,17:10,0.561,0.812,0.509,1.036,0.720,0.320,0.581,0.551,�k��,10.7,��
2023/02/20,17:20,0.561,0.811,0.511,1.037,0.720,0.320,0.582,0.553,�k��,9.6,��
2023/02/20,17:30,0.560,0.813,0.509,1.038,0.720,0.320,0.581,0.554,�k��,7.7,��
2023/02/20,17:40,0.561,0.813,0.509,1.036,0.720,0.320,0.582,0.553,�k��,6.3,��
2023/02/20,17:50,0.562,0.813,0.508,1.036,0.722,0.320,0.580,0.552,�k��,6.3,��
2023/02/20,18:00,0.561,0.814,0.510,1.035,0.720,0.321,0.581,0.553,�k��,6.2,��
2023/02/20,18:10,0.560,0.812,0.507,1.036,0.722,0.320,0.582,0.556,�k��,7.6,��
2023/02/20,18:20,0.561,0.813,0.510,1.036,0.722,0.320,0.581,0.555,�k��,7.8,��
2023/02/20,18:30,0.561,0.813,0.510,1.035,0.722,0.321,0.581,0.553,�k��,8.5,��
2023/02/20,18:40,0.560,0.812,0.510,1.035,0.721,0.322,0.580,0.554,�k�k��,5.7,��
2023/02/20,18:50,0.562,0.812,0.509,1.038,0.722,0.322,0.581,0.555,�k�k��,6.1,��
2023/02/20,19:00,0.561,0.812,0.511,1.036,0.721,0.321,0.581,0.554,�k�k��,5.9,��
2023/02/20,19:10,0.561,0.812,0.512,1.037,0.721,0.321,0.581,0.552,�k�k��,6.6,��
2023/02/20,19:20,0.560,0.814,0.509,1.038,0.721,0.322,0.582,0.552,�k�k��,8.3,��
2023/02/20,19:30,0.560,0.814,0.511,1.036,0.723,0.321,0.580,0.552,�k�k��,8.8,��
2023/02/20,19:40,0.561,0.813,0.511,1.035,0.723,0.321,0.580,0.554,�k��,8.2,��
2023/02/20,19:50,0.561,0.814,0.510,1.036,0.721,0.322,0.582,0.553,�k�k��,7.6,��
2023/02/20,20:00,0.559,0.814,0.512,1.037,0.721,0.322,0.582,0.553,�k�k��,6.7,��
2023/02/20,20:10,0.562,0.813,0.510,1.035,0.720,0.320,0.580,0.552,�k�k��,7.6,��
2023/02/20,20:20,0.560,0.812,0.511,1.036,0.723,0.320,0.581,0.553,�k�k��,7.1,��
2023/02/20,20:30,0.560,0.814,0.511,1.037,0.721,0.319,0.580,0.554,�k,5.0,��
2023/02/20,20:40,0.560,0.812,0.511,1.036,0.721,0.319,0.581,0.552,�k�k��,6.2,��
2023/02/20,20:50,0.560,0.812,0.511,1.038,0.723,0.322,0.581,0.552,�k�k��,6.2,��
2023/02/20,21:00,0.560,0.813,0.510,1.035,0.720,0.322,0.581,0.552,�k,4.8,��
2023/02/20,21:10,0.561,0.812,0.510,1.037,0.721,0.323,0.581,0.552,�k,5.0,��
2023/02/20,21:20,0.559,0.814,0.510,1.036,0.721,0.321,0.580,0.552,�k�k��,5.9,��
2023/02/20,21:30,0.560,0.813,0.511,1.034,0.721,0.322,0.580,0.552,�k�k��,6.4,��
2023/02/20,21:40,0.559,0.813,0.509,1.037,0.723,0.322,0.580,0.552,�k�k��,7.5,��
2023/02/20,21:50,0.559,0.814,0.511,1.037,0.720,0.320,0.581,0.552,�k��,7.6,��
2023/02/20,22:00,0.560,0.813,0.510,1.035,0.721,0.322,0.579,0.552,�k��,8.3,��
2023/02/20,22:10,0.558,0.812,0.510,1.037,0.721,0.321,0.580,0.553,�k��,8.0,��
2023/02/20,22:20,0.560,0.812,0.510,1.037,0.721,0.321,0.580,0.550,�k��,7.8,��
2023/02/20,22:30,0.561,0.812,0.508,1.035,0.722,0.321,0.581,0.551,�k��,10.3,��
2023/02/20,22:40,0.558,0.812,0.507,1.035,0.719,0.319,0.580,0.552,�k��,12.4,��
2023/02/20,22:50,0.558,0.810,0.508,1.035,0.717,0.319,0.580,0.552,�k��,14.4,��
2023/02/20,23:00,0.559,0.812,0.509,1.037,0.717,0.319,0.578,0.553,�k��,14.1,��
2023/02/20,23:10,0.558,0.811,0.508,1.035,0.717,0.319,0.577,0.551,�k��,14.6,��
2023/02/20,23:20,0.559,0.809,0.508,1.037,0.717,0.320,0.578,0.553,�k��,13.9,��
2023/02/20,23:30,0.557,0.810,0.509,1.036,0.718,0.318,0.578,0.552,�k��,13.1,��
2023/02/20,23:40,0.558,0.810,0.508,1.033,0.717,0.319,0.579,0.554,�k��,16.6,��
2023/02/20,23:50,0.558,0.808,0.507,1.033,0.720,0.319,0.579,0.552,�k��,16.6,��
